Weather History for PADQ - September, 2012

Change the Weather History Date:

Saturday, September 22, 2012

  Actual Average Record
Temperature  
Mean Temperature 51 °F 48 °F  
Max Temperature 54 °F 54 °F 64 °F (1951)
Min Temperature 48 °F 41 °F 29 °F (2003)
Degree Days  
Heating Degree Days 14 17  
Month to date heating degree days 333 317  
Since 1 July heating degree days 1067 947  
Cooling Degree Days 0    
Month to date cooling degree days 0  
Year to date cooling degree days 0  
Growing Degree Days 1 (Base 50)    
Moisture  
Dew Point 50 °F    
Average Humidity 0    
Maximum Humidity 0    
Minimum Humidity 0    
Precipitation  
Precipitation 0.86 in 0.27 in 1.51 in (1955)
Month to date precipitation 6.02 5.08  
Year to date precipitation 39.43 51.87  
Snow  
Snow 0.00 in 0.00 in 0.00 in (2014)
Month to date snowfall 0.0 0.0  
Since 1 July snowfall 0.0 0.0  
Since 1 September snowfall 0.0 0.0  
Snow Depth 0.00 in    
Sea Level Pressure  
Sea Level Pressure 29.21 in    
Wind  
Wind Speed 10 mph (ENE)    
Max Wind Speed 18 mph    
Max Gust Speed 23 mph    
Visibility 4 miles    
Events Rain    
T = Trace of Precipitation, MM = Missing Value Source: NWS Daily Summary

Daily Weather History Graph

Daily Weather History Graph

Search for Another Location

Airport or City:

Trip Planner

Search our weather history database for the weather conditions in past years. The results will help you decide how hot, cold, wet, or windy it might be!

Date:

Astronomy

Sep. 22, 2012 Rise Set
Actual Time 7:56 AM AKDT 8:07 PM AKDT
Civil Twilight 7:17 AM AKDT 8:46 PM AKDT
Nautical Twilight 6:30 AM AKDT 9:32 PM AKDT
Astronomical Twilight 5:40 AM AKDT 10:21 PM AKDT
Moon 4:40 PM AKDT (9/22) No Moon Set
Length of Visible Light 13h 28m
Length of Day
12h 10m
Waxing Crescent, 50% of the Moon is Illuminated
Sep 22
Waxing Crescent
Sep 29
Full
Oct 7
Last Quarter
Oct 15
New
Oct 21
First Quarter

Hourly Weather History & Observations

Time (AKDT) Temp. Dew Point Humidity Pressure Visibility Wind Dir Wind Speed Gust Speed Precip Events Conditions
12:53 AM 48.0 °F 48.0 °F 100% 29.30 in 7.0 mi NE 4.6 mph - 0.09 in Rain Light Rain
1:11 AM 48.2 °F 48.2 °F 100% 29.29 in 7.0 mi Calm Calm - 0.03 in Rain Rain
1:53 AM 48.0 °F 48.0 °F 100% 29.27 in 4.0 mi Calm Calm - 0.13 in Rain Rain
2:00 AM 48.2 °F 48.2 °F 100% 29.27 in 6.0 mi Variable 3.5 mph - 0.01 in Rain Rain
2:23 AM 50.0 °F 50.0 °F 100% 29.25 in 6.0 mi East 16.1 mph - 0.07 in Rain Rain
2:53 AM 48.9 °F 48.9 °F 100% 29.24 in 9.0 mi SE 3.5 mph - 0.10 in Rain Light Rain
3:02 AM 48.2 °F 48.2 °F 100% 29.23 in 10.0 mi East 3.5 mph - 0.00 in Rain Light Rain
3:25 AM 50.0 °F 50.0 °F 100% 29.24 in 7.0 mi East 8.1 mph - 0.01 in Rain Light Rain
3:53 AM 50.0 °F 50.0 °F 100% 29.22 in 7.0 mi ENE 10.4 mph - 0.03 in Rain Light Rain
4:01 AM 50.0 °F 50.0 °F 100% 29.21 in 5.0 mi ENE 10.4 mph - 0.00 in Rain Light Rain
4:19 AM 50.0 °F 50.0 °F 100% 29.20 in 6.0 mi East 16.1 mph - 0.00 in Rain Light Rain
4:53 AM 50.0 °F 48.9 °F 96% 29.19 in 5.0 mi East 12.7 mph - 0.02 in Rain Light Rain
5:27 AM 50.0 °F 50.0 °F 100% 29.18 in 2.5 mi ENE 12.7 mph - 0.01 in Rain Light Rain
5:35 AM 50.0 °F 50.0 °F 100% 29.18 in 3.0 mi ENE 13.8 mph - 0.02 in Rain Light Rain
5:53 AM 50.0 °F 50.0 °F 100% 29.17 in 4.0 mi ENE 13.8 mph - 0.03 in Rain Light Rain
6:53 AM 50.0 °F 50.0 °F 100% 29.15 in 4.0 mi East 11.5 mph - 0.07 in Rain Rain
7:23 AM 50.0 °F 48.2 °F 94% 29.15 in 2.5 mi ENE 8.1 mph - 0.06 in Rain Heavy Rain
7:33 AM 50.0 °F 50.0 °F 100% 29.15 in 4.0 mi East 4.6 mph - 0.09 in Rain Light Rain
7:44 AM 50.0 °F 50.0 °F 100% 29.14 in 2.5 mi SE 3.5 mph - 0.09 in Rain Light Rain
7:53 AM 50.0 °F 48.9 °F 96% 29.14 in 2.5 mi Calm Calm - 0.10 in Rain Light Rain
8:53 AM 50.0 °F 50.0 °F 100% 29.15 in 1.0 mi ENE 8.1 mph - 0.02 in   Overcast
9:11 AM 50.0 °F 50.0 °F 100% 29.16 in 2.0 mi ENE 8.1 mph - N/A   Overcast
9:36 AM 50.0 °F 50.0 °F 100% 29.17 in 3.0 mi East 6.9 mph - N/A   Overcast
9:53 AM 51.1 °F 50.0 °F 96% 29.17 in 3.0 mi East 6.9 mph - N/A   Overcast
10:29 AM 51.8 °F 50.0 °F 94% 29.19 in 7.0 mi ESE 9.2 mph - N/A   Overcast
10:53 AM 52.0 °F 51.1 °F 97% 29.19 in 5.0 mi East 11.5 mph - N/A   Overcast
11:53 AM 52.0 °F 51.1 °F 97% 29.22 in 6.0 mi ESE 9.2 mph - 0.00 in   Overcast
12:44 PM 53.6 °F 48.2 °F 82% 29.23 in 7.0 mi SE 12.7 mph - N/A   Overcast
12:53 PM 53.1 °F 48.9 °F 86% 29.24 in 7.0 mi ESE 11.5 mph - N/A   Overcast
1:53 PM 52.0 °F 50.0 °F 93% 29.24 in 6.0 mi ESE 16.1 mph - N/A   Overcast
2:00 PM 51.8 °F 50.0 °F 94% 29.24 in 3.0 mi East 13.8 mph - N/A   Overcast
2:25 PM 51.8 °F 50.0 °F 94% 29.25 in 3.0 mi East 10.4 mph - N/A   Overcast
2:53 PM 51.1 °F 50.0 °F 96% 29.25 in 3.0 mi East 9.2 mph - N/A   Overcast
3:53 PM 51.1 °F 48.9 °F 92% 29.25 in 3.0 mi ENE 8.1 mph - N/A   Overcast
4:53 PM 51.1 °F 50.0 °F 96% 29.23 in 4.0 mi ENE 13.8 mph - N/A   Overcast
5:35 PM 51.8 °F 50.0 °F 94% 29.23 in 2.0 mi ENE 15.0 mph - N/A   Overcast
5:53 PM 51.1 °F 50.0 °F 96% 29.22 in 1.0 mi NE 12.7 mph - 0.01 in Rain Rain
6:04 PM 51.8 °F 50.0 °F 94% 29.22 in 2.0 mi NE 13.8 mph - 0.01 in   Overcast
6:53 PM 51.1 °F 50.0 °F 96% 29.21 in 3.0 mi NE 13.8 mph - 0.02 in Rain Light Rain
7:53 PM 51.1 °F 50.0 °F 96% 29.21 in 3.0 mi NE 12.7 mph - 0.00 in   Overcast
8:06 PM 50.0 °F 50.0 °F 100% 29.20 in 2.0 mi NE 15.0 mph - N/A   Overcast
8:41 PM 51.8 °F 50.0 °F 94% 29.20 in 3.0 mi NE 15.0 mph - N/A   Overcast
8:53 PM 51.1 °F 50.0 °F 96% 29.20 in 4.0 mi NE 13.8 mph - N/A   Overcast
9:42 PM 50.0 °F 50.0 °F 100% 29.20 in 1.0 mi NE 13.8 mph - 0.04 in   Overcast
9:53 PM 50.0 °F 50.0 °F 100% 29.20 in 4.0 mi NE 11.5 mph - 0.04 in Rain Light Rain
10:38 PM 50.0 °F 50.0 °F 100% 29.19 in 4.0 mi NE 11.5 mph - 0.00 in Rain Light Rain
10:53 PM 50.0 °F 50.0 °F 100% 29.19 in 4.0 mi NE 8.1 mph - 0.01 in   Overcast
11:17 PM 50.0 °F 50.0 °F 100% 29.19 in 1.8 mi NNE 8.1 mph - 0.07 in Rain Heavy Rain
11:34 PM 50.0 °F 50.0 °F 100% 29.19 in 3.0 mi NNE 4.6 mph - 0.22 in Rain Light Rain
11:53 PM 50.0 °F 50.0 °F 100% 29.19 in 2.0 mi NE 5.8 mph - 0.25 in Rain Heavy Rain